Location: 相模原市立博物館
(35.5593°N, 139.3931°E)
Time: 14:23:51
(UTC+09:00)

FO-29 - Visible Passes

Search period start: 25 January 2022 00:00
Search period end: 04 February 2022 00:00
Orbit: 801 x 1321 km, 98.5° (Epoch: 24 January)

Date Brightness Start Highest point End Pass type
(mag) Time Alt. Az. Time Alt. Az. Time Alt. Az.
25 Jan 11.3 17:38:41 10° E 17:41:23 13° NE 17:44:10 10° NNE visible
25 Jan 9.6 19:23:30 57° SE 19:24:59 78° ENE 19:32:13 10° N visible
25 Jan 12.1 21:09:55 14° W 21:10:55 15° W 21:14:35 10° NW visible
26 Jan 10.4 18:26:53 19° ESE 18:30:27 31° ENE 18:36:35 10° N visible
26 Jan 10.7 20:13:17 36° SW 20:15:08 43° W 20:21:56 10° NNW visible
27 Jan 11.4 17:34:03 10° ENE 17:36:28 12° NE 17:38:57 10° NE visible
27 Jan 9.6 19:16:27 30° SSE 19:20:00 73° ENE 19:27:18 10° N visible
27 Jan 12.0 21:02:50 13° WSW 21:05:49 17° W 21:10:04 10° NW visible
28 Jan 10.5 18:19:54 10° ESE 18:25:30 29° ENE 18:31:36 10° N visible
28 Jan 10.6 20:03:53 10° S 20:10:06 47° W 20:17:06 10° NNW visible
29 Jan 11.4 17:29:30 10° ENE 17:31:34 11° NE 17:33:40 10° NE visible
29 Jan 9.7 19:08:29 10° SSE 19:15:01 69° ENE 19:22:23 10° N visible
29 Jan 12.0 20:56:18 10° SW 21:00:44 18° W 21:05:29 10° NW visible
30 Jan 10.6 18:14:58 10° ESE 18:20:34 28° ENE 18:26:38 10° N visible
30 Jan 10.5 19:58:40 10° S 20:05:04 51° W 20:12:16 10° NNW visible
31 Jan 9.8 19:03:25 10° SSE 19:10:02 65° ENE 19:17:28 10° N visible
31 Jan 11.9 20:50:50 10° SW 20:55:40 20° W 21:00:51 10° NW visible
01 Feb 10.7 18:10:04 10° ESE 18:15:38 27° ENE 18:21:38 10° N visible
01 Feb 10.4 19:53:29 10° S 20:00:03 55° W 20:07:25 10° NNW visible
02 Feb 9.9 18:58:23 10° SSE 19:05:05 61° ENE 19:12:33 10° N visible
02 Feb 11.8 20:45:25 10° SW 20:50:36 23° W 20:56:11 10° NW visible
03 Feb 10.8 18:05:12 10° ESE 18:10:44 25° ENE 18:16:38 10° N visible
03 Feb 10.3 19:48:19 10° S 19:55:03 60° W 20:02:34 10° NNW visible
